Location: ?????? ??????
(44.3742°N, 135.2221°E)
Time: 18:10:05
(UTC+00:00)

Cosmos 2360 Rocket - Pass Details

Date: 19 May 2025
Orbit: 834 x 842 km, 71.0° (Epoch: 20 June)

Event Time Altitude Azimuth Distance (km) Brightness Sun altitude
Rises 14:41:46 0° 336° (NNW) 3,392 6.5 -25.6°
Reaches altitude 10° 14:44:15 10° 340° (NNW) 2,454 5.5 -25.7°
Maximum altitude 14:49:50 64° 62° (ENE) 925 2.4 -25.7°
Enters shadow 14:50:57 52° 112° (ESE) 1,031 2.4 -25.7°
